Chelyabinsk, Russia

3:55 PM +05 on November 15, 2019 (GMT +0500)
Balandino

Weather History for USCC - October, 2019

Change the Weather History Date:

Wednesday, October 23, 2019

  Actual Average Record
Temperature  
Mean Temperature 42 °F -  
Max Temperature 48 °F - - ()
Min Temperature 37 °F - - ()
Degree Days  
Heating Degree Days 22    
Moisture  
Dew Point 32 °F    
Average Humidity 71    
Maximum Humidity 87    
Minimum Humidity 46    
Precipitation  
Precipitation 0.00 in - - ()
Sea Level Pressure  
Sea Level Pressure 29.93 in    
Wind  
Wind Speed 8 mph ()    
Max Wind Speed 18 mph    
Max Gust Speed -    
Visibility 6.2 miles    
Events      
T = Trace of Precipitation, MM = Missing Value Source: Averaged Metar Reports

Daily Weather History Graph

Daily Weather History Graph

Search for Another Location

Airport or City:

Astronomy

Oct. 23, 2019 Rise Set
Actual Time 7:38 AM +05 5:36 PM +05
Civil Twilight 7:01 AM +05 6:14 PM +05
Nautical Twilight 6:18 AM +05 6:56 PM +05
Astronomical Twilight 5:36 AM +05 7:38 PM +05
Moon 12:07 AM +05 (10/23) 4:22 PM +05 (10/23)
Length of Visible Light 11h 13m
Length of Day
9h 57m
Waning Crescent, 30% of the Moon is Illuminated
Oct 23
Waning Crescent
Oct 28
New
Nov 4
First Quarter
Nov 12
Full
Nov 20
Last Quarter

Hourly Weather History & Observations

Time (+05) Temp. Windchill Dew Point Humidity Pressure Visibility Wind Dir Wind Speed Gust Speed Precip Events Conditions
12:00 AM 42.8 °F 36.7 °F 39.2 °F 87% 29.95 in 6.2 mi WSW 11.2 mph - N/A   Mostly Cloudy
12:30 AM 42.8 °F 37.6 °F 39.2 °F 87% 29.95 in 6.2 mi West 8.9 mph - N/A   Mostly Cloudy
1:00 AM 42.8 °F 40.2 °F 37.4 °F 81% 29.98 in 6.2 mi NW 4.5 mph - N/A   Mostly Cloudy
1:30 AM 41.0 °F 38.1 °F 37.4 °F 87% 29.98 in 6.2 mi NW 4.5 mph - N/A   Mostly Cloudy
2:00 AM 41.0 °F 38.1 °F 33.8 °F 76% 29.98 in 6.2 mi WNW 4.5 mph - N/A   Mostly Cloudy
3:00 AM 41.0 °F 38.1 °F 33.8 °F 76% 29.98 in 6.2 mi WNW 4.5 mph - N/A   Mostly Cloudy
4:00 AM 39.2 °F 36.0 °F 33.8 °F 81% 29.98 in 6.2 mi North 4.5 mph - N/A   Mostly Cloudy
4:30 AM 39.2 °F - 33.8 °F 81% 29.98 in 6.2 mi Variable 2.2 mph - N/A   Mostly Cloudy
5:30 AM 39.2 °F 36.0 °F 33.8 °F 81% 29.98 in 6.2 mi WNW 4.5 mph - N/A   Mostly Cloudy
6:00 AM 37.4 °F - 33.8 °F 87% 29.98 in 6.2 mi Variable 2.2 mph - N/A   Mostly Cloudy
6:30 AM 39.2 °F 34.4 °F 32.0 °F 75% 29.98 in 6.2 mi West 6.7 mph - N/A   Mostly Cloudy
7:00 AM 37.4 °F 32.2 °F 32.0 °F 81% 29.98 in 6.2 mi WNW 6.7 mph - N/A   Mostly Cloudy
7:30 AM 37.4 °F 32.2 °F 32.0 °F 81% 29.98 in 6.2 mi WNW 6.7 mph - N/A   Mostly Cloudy
8:00 AM 37.4 °F 30.9 °F 32.0 °F 81% 29.98 in 6.2 mi WNW 8.9 mph - N/A   Mostly Cloudy
8:30 AM 37.4 °F 30.9 °F 32.0 °F 81% 29.98 in 6.2 mi West 8.9 mph - N/A   Mostly Cloudy
9:30 AM 39.2 °F 36.0 °F 32.0 °F 75% 29.98 in 6.2 mi West 4.5 mph - N/A   Scattered Clouds
10:00 AM 39.2 °F 32.2 °F 32.0 °F 75% 29.98 in 6.2 mi West 11.2 mph - N/A   Scattered Clouds
11:00 AM 42.8 °F 36.7 °F 32.0 °F 66% 29.98 in 6.2 mi West 11.2 mph - N/A   Scattered Clouds
11:30 AM 41.0 °F 32.3 °F 30.2 °F 65% 29.95 in 6.2 mi West 17.9 mph - N/A   Scattered Clouds
12:00 PM 42.8 °F 35.2 °F 30.2 °F 61% 29.95 in 6.2 mi West 15.7 mph - N/A   Partly Cloudy
12:30 PM 44.6 °F 37.6 °F 30.2 °F 57% 29.95 in 6.2 mi WSW 15.7 mph - N/A   Partly Cloudy
1:00 PM 44.6 °F 38.9 °F 30.2 °F 57% 29.95 in 6.2 mi WSW 11.2 mph - N/A   Partly Cloudy
2:00 PM 46.4 °F 40.5 °F 30.2 °F 53% 29.92 in - West 13.4 mph - N/A   Clear
2:30 PM 48.2 °F - 30.2 °F 50% 29.92 in - SW 13.4 mph - N/A   Clear
3:30 PM 48.2 °F - 28.4 °F 46% 29.89 in - SW 17.9 mph - N/A   Clear
4:00 PM 46.4 °F 40.5 °F 28.4 °F 50% 29.89 in - WSW 13.4 mph - N/A   Clear
5:00 PM 42.8 °F 36.7 °F 30.2 °F 61% 29.89 in 6.2 mi West 11.2 mph - N/A   Partly Cloudy
6:30 PM 42.8 °F 37.6 °F 30.2 °F 61% 29.86 in 6.2 mi WSW 8.9 mph - N/A   Scattered Clouds
8:00 PM 41.0 °F 34.4 °F 30.2 °F 65% 29.83 in 6.2 mi SW 11.2 mph - N/A   Partly Cloudy
9:00 PM 42.8 °F 35.9 °F 32.0 °F 66% 29.80 in 6.2 mi WSW 13.4 mph - N/A   Scattered Clouds
10:00 PM 41.0 °F 33.6 °F 30.2 °F 65% 29.80 in 6.2 mi SW 13.4 mph - N/A   Scattered Clouds
10:30 PM 41.0 °F 34.4 °F 30.2 °F 65% 29.80 in 6.2 mi SW 11.2 mph - N/A   Scattered Clouds
11:00 PM 41.0 °F 34.4 °F 32.0 °F 70% 29.80 in 6.2 mi SW 11.2 mph - N/A   Scattered Clouds
11:30 PM 41.0 °F 34.4 °F 32.0 °F 70% 29.77 in 6.2 mi SW 11.2 mph - N/A   Scattered Clouds